Tracking 28895 objects as of 29-May-2024
HD Live streaming from Space Station
objects crossing your sky now

COSMOS 1823 DEB

Track COSMOS 1823 DEB now!
10-day predictions


NORAD ID: 18737
Int'l Code: 1987-020Q
Perigee: 1,485.2 km
Apogee: 1,529.4 km
Inclination: 73.6 °
Period: 116.0 minutes
Semi major axis: 7878 km
RCS: 0.232 m2 (medium)
Launch date: February 20, 1987
Source: Commonwealth of Independent States (former USSR) (CIS)
Launch site: PLESETSK MISSILE AND SPACE COMPLEX (PKMTR)

Note: This is SATELLITE DEBRIS
Your satellite tracking list
Your tracking list is empty




NASA's NSSDC Master Catalog

Two Line Element Set (TLE):
1 18737U 87020Q   24149.56648777  .00000011  00000-0  20763-3 0  9996
2 18737  73.6051 327.3259 0028018 229.8334 204.3057 12.41522882651818
Source of the keplerian elements: AFSPC